ADT,Max TemperatureF,Mean TemperatureF,Min TemperatureF,Max Dew PointF,MeanDew PointF,Min DewpointF,Max Humidity, Mean Humidity, Min Humidity, Max Sea Level PressureIn, Mean Sea Level PressureIn, Min Sea Level PressureIn, Max VisibilityMiles, Mean VisibilityMiles, Min VisibilityMiles, Max Wind SpeedMPH, Mean Wind SpeedMPH, Max Gust SpeedMPH,PrecipitationIn, CloudCover, Events, WindDirDegrees
2012-10-1,62,58,54,58,56,53,100,93,79,29.82,29.78,29.73,,,,24,12,30,0.08,,,211
2012-10-2,73,62,51,58,54,50,99,82,46,30.02,29.93,29.83,,,,14,9,22,0.00,,,252
2012-10-3,75,64,54,58,55,52,96,78,44,30.14,30.08,30.03,,,,12,7,,0.00,,,277
2012-10-4,64,56,49,56,52,47,92,84,68,30.22,30.16,30.07,,,,6,5,,0.35,,,41
2012-10-5,59,56,53,56,55,50,97,94,86,30.06,29.99,29.95,,,,6,3,,0.32,,,299
2012-10-6,61,58,55,58,56,54,98,92,80,29.98,29.94,29.86,,,,20,7,,0.00,,,214
2012-10-7,63,58,52,58,53,48,96,83,53,30.07,29.96,29.83,,,,16,12,,0.04,,,245
2012-10-8,61,53,43,51,46,40,98,80,50,30.35,30.11,29.95,,,,14,7,,0.59,,,318
2012-10-9,54,46,39,50,45,40,94,83,67,30.41,30.32,30.18,,,,15,8,21,0.03,,,32
2012-10-10,61,56,50,58,53,47,99,91,85,30.17,30.04,29.82,,,,16,8,23,0.00,,,60
2012-10-11,61,52,43,60,46,35,99,75,40,30.11,29.81,29.59,,,,25,17,36,0.02,,,246
2012-10-12,61,48,36,50,44,33,93,80,60,30.12,30.00,29.86,,,,22,11,29,0.03,,,250
2012-10-13,50,40,31,32,29,27,97,65,28,30.37,30.22,30.08,,,,16,10,24,0.00,,,292
2012-10-14,53,42,32,52,39,29,98,83,62,30.34,30.24,30.04,,,,16,7,,0.08,,,246
2012-10-15,63,56,50,58,54,50,100,95,82,30.05,29.94,29.83,,,,21,9,,0.00,,,219
2012-10-16,59,54,48,58,55,46,100,97,83,29.82,29.61,29.43,,,,20,11,24,0.08,,,220
2012-10-17,60,47,34,43,39,34,97,78,42,29.95,29.83,29.72,,,,10,7,,0.00,,,293
2012-10-18,55,44,34,47,41,36,95,85,64,30.24,30.13,29.97,,,,8,6,,0.00,,,270
2012-10-19,62,50,37,55,48,39,97,91,76,30.28,30.24,30.16,,,,16,6,,0.00,,,55
2012-10-20,59,57,55,59,57,54,99,95,90,30.14,29.96,29.77,,,,23,17,,0.43,,,142
2012-10-21,66,57,48,57,52,45,100,90,52,29.76,29.72,29.68,,,,16,10,,0.38,,,226
2012-10-22,59,52,44,48,45,42,96,79,48,29.78,29.73,29.69,,,,16,9,20,0.00,,,262
2012-10-23,52,44,37,41,36,32,89,72,44,30.00,29.88,29.78,,,,17,8,24,0.00,,,289
2012-10-24,54,42,31,36,31,23,95,69,19,30.17,30.08,30.01,,,,14,8,20,0.00,,,300
2012-10-25,51,40,30,36,31,27,88,69,43,30.30,30.24,30.18,,,,9,7,,0.00,,,337
2012-10-26,62,48,35,46,35,30,86,65,31,30.26,30.20,30.12,,,,10,8,,0.00,,,321
2012-10-27,61,50,39,50,41,31,89,68,40,30.11,30.08,30.03,,,,13,7,20,0.00,,,15
2012-10-28,59,52,46,53,49,46,97,88,69,30.08,30.02,29.94,,,,15,8,21,0.04,,,31
2012-10-29,56,54,53,56,55,54,99,97,95,29.93,29.90,29.87,,,,31,21,41,0.00,,,69
2012-10-30,59,58,56,59,57,56,100,97,92,29.96,29.92,29.88,,,,28,26,37,0.16,,,97
2012-10-31,61,58,56,59,57,56,99,98,94,29.89,29.74,29.61,,,,26,20,36,0.91,,,117